MONITOR-2 (RS39S)

Last updated on Sun Apr 12 2026 00:03:15 GMT+0000 (Coordinated Universal Time)

1 57184U 23091U 26101.49784542 .00004622 00000+0 22828-3 0 9991 2 57184 97.5139 160.2214 0010832 353.0989 7.0094 15.18319968153839
UTC large
Height (km)
Speed (km/s)
/
Latitude / Longitude
Inclination (degrees)
Orbital Period (minutes)
Azimuth
Elevation
Range (km)
Doppler Factor

Next 0 passes for location: London (51.5072 / 0.1276)

Sorry there are no passes over London.
MONITOR-2 (RS39S)